Zurück zum Katalog

STARLINK-36153

AktivKommunikationVLEO
NORAD 66934·PAYLOAD·🇺🇸 United States

Gestartet Dec 7, 2025 von Vandenberg Space Force Base

Loading…

Nächste Überflüge (nächste 24 Stunden)

TLE

AktuellSource: CelesTrak SupGP

Epoche: Sep 14, 2026, 23:14 UTC

1 66934C 25286K   26257.96854167 -.00041490  00000+0 -12249-2 0  2575
2 66934  53.1592 195.7686 0001322  91.5984 339.9543 15.34435070    10

Verfolge STARLINK-36153 in Echtzeit mit AllMySat

Download on the App Store